DELTA 1 DEB, 10834

Orbit data source: Space-Track

DELTA 1 DEB, 10834 is space debris in SSO originally from a launch on Thu, 29 Jul 1976 UTC launched from the Air Force Western Test Range (AFWTR). Debris objects in space refer to the collection of defunct objects orbiting the Earth. Examples of debris include non-operational satellites, rocket bodies, and fragments generated from explosions, collisions, or faulty payload assembly.

Loading next visibility...
Identifier
10834, 1976-077CE
Orbit
SSO
Country
Flag of USUS
Related business
Manufacturer
Unknown
Mission
Spacecraft
Bus & Motor
Unknown
Mass
Unknown
Launch date (UTC)
1976-07-29 (49 years ago)
Launch vehicle
Unknown
Launch site
Air Force Western Test Range (AFWTR)
Object type
Payload
Rocket body
Debris
Shape & HBR
Unknown shape, 0.2 m
Radar Cross Section
Small (<0.1 m²)

Expand to show TLE details & history
Last TLE update: 16 hours ago

TLE from 16 hours ago
0 DELTA 1 DEB
1 10834U 76077CE  25352.87712749  .00001787  00000-0  17753-1 0  9992
2 10834 100.3758 313.0646 0127518 237.9992 182.6893 12.17259013183381
Epoch: 2025-12-18T21:03Z
TLE epoch observation values (Epoch: 2025-12-18T21:03:03.815Z)
Latitude
59.08527°
Longitude
-108.14367°
Altitude
1,716.059 km
Speed
6.979 km/s
True Right ascension
19h 41m 23s
True Declination
58° 57' 05"
Sunlit
Object was in daylight at epoch
Visualization orbit readout
Latitude
Unknown
Longitude
Unknown
Altitude
Unknown
Speed
Unknown
Apparent Right ascension
Unknown
Apparent Declination
Unknown
Sunlit
N/A
Visualization observer readout
Local Sidereal Time
11:29:11
Azimuth
Unknown
Elevation
Unknown
Doppler factor
Unknown
Orbital elements
Apogee altitude
1,703.778 km
Perigee altitude
1,500.256 km
Semi-major axis
7,980.154 km
Eccentricity
0.01275
Inclination
100.3758°
RAAN
313.0646°
Arg. of periapsis
237.9992°
True anomaly
182.62181°
Mean anomaly
182.6893°
Eccentric anomaly
182.65545°
Mean motion
3.04457 °/min
Orbital period
118.24 mins
BSTAR
0.017753
Loading maneuver chart data...
Computing Atmospheric mass density...
Loading historical data...
Loading historical data...
Loading historical data...
Loading historical data...
Loading historical data...
Loading historical data...
Loading historical data...

Documentation

Showing up to 5 results
|